CZ-2D DEB (45806 NORAD) Tracking and Keplerian Element Data

This shows tracking and keplerian element data for the satellite.

Feedback or suggestion? Click here.




ElementValue
Catalog45806
NameCZ-2D DEB
Epoch Orbit100
Epoch Day180.89921152
Epoch Year2020
RAAN325.4725
Inclination97.1574
Eccentricity0.0044336
Argument of Perigee207.0786
Mean Anonmoly152.8144
Mean Motion15.31674714
Decay Rate2.806E-05
L11 45806U 20034E 20180.89921152 .00002806 00000-0 91509-4 0 9994
L22 45806 97.1574 325.4725 0044336 207.0786 152.8144 15.31674714 1001

Live tracking and technical data element details for CZ-2D DEB (NORAD 45806). CZ-2D DEB can be tracked NOW for your location showing map with azimuth and elevation plus other details from your city location.

Track the satellite on the map from your city or location and see movement details for azimuth, elevation, latitude, longitude, range, height, and movement on the map or in text.







IsCatalogInMostPopularTable: catalog: 45806, numindb: 3
Update: records affected: 1



GetName: 45806 CZ-2D DEB

Hit Count: updated at: Sun, 05 Jul 2020 17:18:41 GMT